Вернуться в каталог

PW-6U

АктивенНаукаSSO
NORAD 66760·PAYLOAD·🇯🇵 Japan
Это название спутника еще не подтверждено официальными источниками.

Запущен Nov 28, 2025 с Vandenberg Space Force Base

Loading…

Ближайшие Пролёты (ближайшие 24 часа)

TLE

СвежийSource: Space-Track

Эпоха: Sep 14, 2026, 08:29 UTC

1 66760U 25276CY  26257.35415093  .00003753  00000-0  17259-3 0  9994
2 66760  97.4114 329.6251 0001446  70.8666 289.2726 15.20952997 43988

Отслеживайте PW-6U в реальном времени с AllMySat

Download on the App Store